Weather History for KFMY - March, 2013

Change the Weather History Date:

Thursday, March 14, 2013

  Actual Average Record
Temperature  
Mean Temperature 63 °F 70 °F  
Max Temperature 75 °F 80 °F 88 °F (1943)
Min Temperature 51 °F 59 °F 40 °F (1932)
Degree Days  
Heating Degree Days 2 1  
Month to date heating degree days 55 14  
Since 1 July heating degree days 171 274  
Cooling Degree Days 0 5  
Month to date cooling degree days 13 70  
Year to date cooling degree days 324 255  
Growing Degree Days 12 (Base 50)    
Moisture  
Dew Point 37 °F    
Average Humidity 47    
Maximum Humidity 77    
Minimum Humidity 14    
Precipitation  
Precipitation 0.00 in 0.10 in 0.91 in (1915)
Month to date precipitation 0.12 1.31  
Year to date precipitation 2.60 5.40  
Sea Level Pressure  
Sea Level Pressure 30.20 in    
Wind  
Wind Speed 10 mph (North)    
Max Wind Speed 23 mph    
Max Gust Speed 28 mph    
Visibility 10 miles    
Events      
T = Trace of Precipitation, MM = Missing Value Source: NWS Daily Summary

Daily Weather History Graph

Daily Weather History Graph

Search for Another Location

Airport or City:

Trip Planner

Search our weather history database for the weather conditions in past years. The results will help you decide how hot, cold, wet, or windy it might be!

Date:

Astronomy

Mar. 14, 2013 Rise Set
Actual Time 7:37 AM EDT 7:35 PM EDT
Civil Twilight 7:14 AM EDT 7:58 PM EDT
Nautical Twilight 6:47 AM EDT 8:25 PM EDT
Astronomical Twilight 6:20 AM EDT 8:52 PM EDT
Moon 9:10 AM EDT (3/14) 10:28 PM EDT (3/14)
Length of Visible Light 12h 44m
Length of Day
11h 58m
Waxing Crescent, 9% of the Moon is Illuminated
Mar 14
Waxing Crescent
Mar 19
First Quarter
Mar 27
Full
Apr 3
Last Quarter
Apr 10
New

Hourly Weather History & Observations

Time (EDT) Temp. Dew Point Humidity Pressure Visibility Wind Dir Wind Speed Gust Speed Precip Events Conditions
12:53 AM 57.0 °F 43.0 °F 59% 30.19 in 10.0 mi North 9.2 mph - N/A   Clear
1:53 AM 55.9 °F 43.0 °F 62% 30.19 in 10.0 mi North 4.6 mph - N/A   Clear
2:53 AM 53.1 °F 44.1 °F 71% 30.17 in 10.0 mi North 3.5 mph - N/A   Clear
3:53 AM 53.1 °F 45.0 °F 74% 30.17 in 10.0 mi North 4.6 mph - N/A   Clear
4:53 AM 55.9 °F 46.9 °F 72% 30.16 in 10.0 mi North 9.2 mph - N/A   Clear
5:53 AM 54.0 °F 46.9 °F 77% 30.18 in 10.0 mi North 13.8 mph - N/A   Clear
6:53 AM 53.1 °F 39.9 °F 61% 30.20 in 10.0 mi North 13.8 mph - N/A   Clear
7:53 AM 51.1 °F 36.0 °F 56% 30.23 in 10.0 mi North 12.7 mph 20.7 mph N/A   Clear
8:53 AM 55.0 °F 33.1 °F 43% 30.24 in 10.0 mi North 17.3 mph - N/A   Clear
9:53 AM 57.0 °F 28.9 °F 34% 30.25 in 10.0 mi NNE 19.6 mph 27.6 mph N/A   Clear
10:53 AM 60.1 °F 25.0 °F 26% 30.25 in 10.0 mi NNE 20.7 mph 26.5 mph N/A   Clear
11:53 AM 64.0 °F 27.0 °F 25% 30.25 in 10.0 mi NNE 16.1 mph 23.0 mph N/A   Clear
12:53 PM 66.9 °F 25.0 °F 21% 30.24 in 10.0 mi NNE 6.9 mph - N/A   Clear
1:53 PM 69.1 °F 24.1 °F 18% 30.21 in 10.0 mi NNE 10.4 mph 16.1 mph N/A   Clear
2:53 PM 72.0 °F 21.9 °F 15% 30.18 in 10.0 mi NNE 13.8 mph - N/A   Clear
3:53 PM 73.0 °F 21.0 °F 14% 30.16 in 10.0 mi North 6.9 mph - N/A   Clear
4:53 PM 73.9 °F 21.0 °F 14% 30.15 in 10.0 mi NNE 11.5 mph - N/A   Clear
5:53 PM 70.0 °F 37.9 °F 31% 30.15 in 10.0 mi WNW 10.4 mph - N/A   Clear
6:53 PM 66.9 °F 43.0 °F 42% 30.17 in 10.0 mi WNW 6.9 mph - N/A   Clear
7:53 PM 63.0 °F 45.0 °F 52% 30.18 in 10.0 mi WNW 5.8 mph - N/A   Clear
8:53 PM 59.0 °F 48.0 °F 67% 30.19 in 10.0 mi NNW 5.8 mph - N/A   Clear
9:53 PM 57.0 °F 48.0 °F 72% 30.21 in 10.0 mi NNW 5.8 mph - N/A   Clear
10:53 PM 57.0 °F 44.1 °F 62% 30.24 in 10.0 mi NNE 4.6 mph - N/A   Clear
11:53 PM 54.0 °F 41.0 °F 62% 30.26 in 10.0 mi NE 9.2 mph - N/A   Clear